Voltar ao catálogo

TITAN 3C TRANSTAGE DEB

LostMEO
NORAD 38692·DEBRIS·🇺🇸 United States

Lançado Sep 26, 1968 de Cape Canaveral Space Force Station

Loading…

Próximas Passagens (próximas 24 horas)

TLE

ObsoletoSource: Space-Track

Época: Aug 8, 2026, 04:41 UTC

1 38692U 68081S   26220.19517185 -.00000210  00000-0  00000-0 0  9994
2 38692   1.9964  22.7089 0298766 293.1016  64.1942  0.99219130 41901

Acompanhe TITAN 3C TRANSTAGE DEB em tempo real com AllMySat

Download on the App Store